Weather in Konevo

Russia / Arkhangel'skaya Oblast'     62°07′17″N   39°19′11″E
temp.,
°C
wind,
m/s
gust,
m/s
humid.,
%
clouds,
%
prec.,
mm/h
press.,
hPa
HPBL,
m
15 may, sat
sat1500:00+11s237865 0.0 101463
03:00+11s22845 0.0 101446
06:00+13s24765 0.0 1014162
09:00+18s23515 0.0 1013737
12:00+22se23364 0.0 10121872
15:00+23se2438100 0.0 10102248
18:00+19ese3760100 0.0 1009349
21:00+17e31169100 0.1 1007449
16 may, sun
sun1600:00+14e41096100 10.4 1005468
03:00+14s3997100 15.9 1003487
06:00+14s3997100 6.1 1003435
09:00+14s41093100 7.4 1003612
12:00+18ssw5877100 0.1 10031063
15:00+18ssw5979100 1.6 10041111
18:00+16sw4108768 2.4 1004920
21:00+13sw41093100 2.8 1005746
17 may, mon
mon1700:00+11wsw4992100 0.3 1007853
03:00+9w41193100 0.3 1009748
06:00+10wsw41190100 0.0 1011588
09:00+13w487291 0.0 1013778
12:00+17w475515 0.0 10141401
15:00+19wnw354918 0.0 10151752
18:00+19wnw235310 0.0 10151411
21:00+13ene11765 0.0 101611
18 may, tue
tue1800:00+10e2591100 0.0 1016106
03:00+9e279386 0.0 1016144
06:00+12e398395 0.0 1015283
09:00+18ese496283 0.0 1014604
12:00+22se5852100 0.0 10121041
15:00+25se51048100 0.0 10101376
18:00+24se51150100 0.0 10081117
21:00+20se515625 0.0 1008591
19 may, wed
wed1900:00+18se415645 0.0 1007512
03:00+16sse412790 0.0 1007388
06:00+16s3108152 0.0 1007418
09:00+20s3769100 0.0 1007676
12:00+22ssw3858100 0.3 10061447
15:00+23sw365586 1.1 10061354
18:00+17wnw2786100 1.3 1004169
21:00+15n4992100 3.7 1002298